Sterling Muni, Sterling, CO, CO

11:13 AM MDT on August 22, 2017 (GMT -0600)
Sterling Municipal

Weather History for KSTK - December, 2014

Change the Weather History Date:

Saturday, December 27, 2014

  Actual Average Record
Temperature  
Mean Temperature 12 °F -  
Max Temperature 23 °F 38 °F 55 °F (2013)
Min Temperature -2 °F 12 °F -2 °F (2014)
Degree Days  
Heating Degree Days 54    
Moisture  
Dew Point 5 °F    
Average Humidity 83    
Maximum Humidity 93    
Minimum Humidity 68    
Precipitation  
Precipitation 0.00 in - - ()
Sea Level Pressure  
Sea Level Pressure 30.14 in    
Wind  
Wind Speed 7 mph (SW)    
Max Wind Speed 13 mph    
Max Gust Speed -    
Visibility 10 miles    
Events Snow    
Averages and records for this station are not official NWS values.
T = Trace of Precipitation, MM = Missing Value Source: NWS Daily Summary

Daily Weather History Graph

Daily Weather History Graph

Search for Another Location

Airport or City:

Trip Planner

Search our weather history database for the weather conditions in past years. The results will help you decide how hot, cold, wet, or windy it might be!

Date:

Astronomy

Dec. 27, 2014 Rise Set
Actual Time 7:15 AM MST 4:32 PM MST
Civil Twilight 6:44 AM MST 5:03 PM MST
Nautical Twilight 6:10 AM MST 5:38 PM MST
Astronomical Twilight 5:37 AM MST 6:11 PM MST
Moon 11:02 AM MST (12/27) 11:27 PM MST (12/27)
Length of Visible Light 10h 18m
Length of Day
9h 17m
Waxing Crescent, 39% of the Moon is Illuminated
Dec 27
Waxing Crescent
Dec 28
First Quarter
Jan 4
Full
Jan 13
Last Quarter
Jan 20
New

Hourly Weather History & Observations

Time (MST) Temp. Windchill Dew Point Humidity Pressure Visibility Wind Dir Wind Speed Gust Speed Precip Events Conditions
12:10 AM 14.0 °F 2.9 °F 12.2 °F 93% 30.13 in 10.0 mi West 8.1 mph - N/A   Mostly Cloudy
12:30 AM 12.2 °F 0.7 °F 8.6 °F 85% 30.13 in 10.0 mi West 8.1 mph - N/A   Scattered Clouds
12:50 AM 10.4 °F -0.4 °F 8.6 °F 92% 30.13 in 10.0 mi WNW 6.9 mph - N/A   Clear
1:10 AM 10.4 °F -2.4 °F 8.6 °F 92% 30.13 in 10.0 mi West 9.2 mph - N/A   Clear
1:30 AM 8.6 °F -5.5 °F 5.0 °F 85% 30.13 in 10.0 mi West 10.4 mph - N/A   Clear
1:50 AM 8.6 °F -5.5 °F 6.8 °F 92% 30.13 in 10.0 mi West 10.4 mph - N/A   Clear
2:10 AM 10.4 °F -3.3 °F 6.8 °F 85% 30.13 in 10.0 mi West 10.4 mph - N/A   Clear
2:30 AM 10.4 °F -3.3 °F 8.6 °F 92% 30.13 in 10.0 mi West 10.4 mph - N/A   Clear
2:50 AM 14.0 °F -0.2 °F 10.4 °F 86% 30.13 in 10.0 mi WNW 12.7 mph - N/A   Clear
3:10 AM 14.0 °F 1.2 °F 10.4 °F 86% 30.13 in 10.0 mi NW 10.4 mph - N/A   Clear
3:30 AM 12.2 °F -0.2 °F 8.6 °F 85% 30.13 in 10.0 mi WNW 9.2 mph - N/A   Clear
3:50 AM 5.0 °F -5.6 °F 3.2 °F 92% 30.13 in 7.0 mi South 5.8 mph - N/A Snow Light Snow
4:10 AM 10.4 °F - 8.6 °F 92% 30.14 in 10.0 mi Calm Calm - N/A   Clear
4:30 AM 5.0 °F -6.9 °F 1.4 °F 85% 30.14 in 10.0 mi South 6.9 mph - N/A   Clear
4:50 AM 6.8 °F -2.0 °F 5.0 °F 92% 30.15 in 10.0 mi South 4.6 mph - N/A   Clear
5:10 AM 5.0 °F -8.1 °F 1.4 °F 85% 30.15 in 10.0 mi South 8.1 mph - N/A   Clear
5:30 AM 3.2 °F -9.1 °F -0.4 °F 85% 30.16 in 10.0 mi SSW 6.9 mph - N/A   Clear
5:50 AM 3.2 °F -11.3 °F -0.4 °F 85% 30.16 in 10.0 mi SW 9.2 mph - N/A   Clear
6:10 AM 3.2 °F -10.3 °F 1.4 °F 92% 30.17 in 10.0 mi SW 8.1 mph - N/A   Clear
6:30 AM 1.4 °F -8.3 °F -2.2 °F 85% 30.18 in 10.0 mi SSW 4.6 mph - N/A   Clear
6:50 AM -0.4 °F -10.4 °F -4.0 °F 85% 30.18 in 10.0 mi South 4.6 mph - N/A   Clear
7:10 AM -0.4 °F -8.3 °F -4.0 °F 85% 30.18 in 4.0 mi SW 3.5 mph - N/A   Clear
7:30 AM 1.4 °F -8.3 °F -2.2 °F 85% 30.19 in 7.0 mi SSW 4.6 mph - N/A   Clear
7:50 AM -0.4 °F -12.0 °F -4.0 °F 85% 30.19 in 10.0 mi SSW 5.8 mph - N/A   Clear
8:10 AM 3.2 °F -13.1 °F 1.4 °F 92% 30.20 in 10.0 mi SW 11.5 mph - N/A   Clear
8:30 AM 5.0 °F -9.1 °F 1.4 °F 85% 30.21 in 10.0 mi SW 9.2 mph - N/A   Clear
8:50 AM 5.0 °F -4.1 °F 1.4 °F 85% 30.21 in 10.0 mi SW 4.6 mph - N/A   Clear
9:10 AM 6.8 °F -4.8 °F 3.2 °F 85% 30.22 in 10.0 mi WSW 6.9 mph - N/A   Clear
9:30 AM 8.6 °F -3.7 °F 5.0 °F 85% 30.22 in 10.0 mi SW 8.1 mph - N/A   Clear
9:50 AM 10.4 °F -3.3 °F 5.0 °F 79% 30.23 in 10.0 mi SW 10.4 mph - N/A   Clear
10:10 AM 12.2 °F -2.5 °F 8.6 °F 85% 30.22 in 10.0 mi SW 12.7 mph - N/A   Clear
10:30 AM 14.0 °F -0.2 °F 8.6 °F 79% 30.21 in 10.0 mi SW 12.7 mph - N/A   Clear
10:50 AM 14.0 °F 1.2 °F 8.6 °F 79% 30.21 in 10.0 mi SW 10.4 mph - N/A   Clear
11:10 AM 15.8 °F 3.4 °F 8.6 °F 73% 30.20 in 10.0 mi SW 10.4 mph - N/A   Clear
11:30 AM 17.6 °F 6.4 °F 10.4 °F 73% 30.18 in 10.0 mi SSW 9.2 mph - N/A   Clear
11:50 AM 17.6 °F 5.7 °F 10.4 °F 73% 30.17 in 10.0 mi SW 10.4 mph - N/A   Clear
12:10 PM 19.4 °F 10.4 °F 10.4 °F 68% 30.16 in 10.0 mi SW 6.9 mph - N/A   Clear
12:30 PM 19.4 °F 9.5 °F 12.2 °F 74% 30.15 in 10.0 mi South 8.1 mph - N/A   Clear
12:50 PM 21.2 °F 13.6 °F 12.2 °F 68% 30.14 in 10.0 mi SSW 5.8 mph - N/A   Clear
1:10 PM 21.2 °F 14.9 °F 12.2 °F 68% 30.13 in 10.0 mi SSW 4.6 mph - N/A   Clear
1:30 PM 21.2 °F 13.6 °F 14.0 °F 74% 30.13 in 10.0 mi SW 5.8 mph - N/A   Clear
1:50 PM 21.2 °F 14.9 °F 14.0 °F 74% 30.13 in 10.0 mi South 4.6 mph - N/A   Clear
2:10 PM 23.0 °F 17.0 °F 14.0 °F 68% 30.12 in 10.0 mi South 4.6 mph - N/A   Clear
2:30 PM 21.2 °F 16.4 °F 14.0 °F 74% 30.11 in 10.0 mi South 3.5 mph - N/A   Clear
2:50 PM 21.2 °F - 12.2 °F 68% 30.11 in 10.0 mi Calm Calm - N/A   Clear
3:10 PM 21.2 °F - 12.2 °F 68% 30.11 in 10.0 mi Calm Calm - N/A   Clear
3:30 PM 19.4 °F 12.8 °F 12.2 °F 74% 30.12 in 10.0 mi WNW 4.6 mph - N/A   Clear
3:50 PM 19.4 °F - 12.2 °F 74% 30.11 in 10.0 mi Calm Calm - N/A   Clear
4:10 PM 14.0 °F 6.5 °F 8.6 °F 79% 30.12 in 10.0 mi West 4.6 mph - N/A   Clear
4:30 PM 12.2 °F - 10.4 °F 92% 30.12 in 10.0 mi Calm Calm - N/A   Clear
4:50 PM 12.2 °F 6.1 °F 8.6 °F 85% 30.13 in 10.0 mi NW 3.5 mph - N/A   Clear
5:10 PM 12.2 °F 6.1 °F 8.6 °F 85% 30.13 in 10.0 mi WNW 3.5 mph - N/A   Clear
5:30 PM 10.4 °F - 6.8 °F 85% 30.13 in 10.0 mi Calm Calm - N/A   Clear
5:50 PM 5.0 °F -2.1 °F 3.2 °F 92% 30.13 in 10.0 mi SW 3.5 mph - N/A   Clear
6:10 PM 3.2 °F - 1.4 °F 92% 30.13 in 10.0 mi Calm Calm - N/A   Clear
6:30 PM 5.0 °F -2.1 °F 1.4 °F 85% 30.13 in 10.0 mi WSW 3.5 mph - N/A   Clear
6:50 PM 3.2 °F -4.2 °F 1.4 °F 92% 30.13 in 10.0 mi West 3.5 mph - N/A   Clear
7:10 PM 5.0 °F -4.1 °F 1.4 °F 85% 30.12 in 10.0 mi West 4.6 mph - N/A   Clear
7:30 PM 5.0 °F - 3.2 °F 92% 30.12 in 10.0 mi Calm Calm - N/A   Clear
7:50 PM 5.0 °F - 3.2 °F 92% 30.12 in 10.0 mi Calm Calm - N/A   Clear
8:10 PM 1.4 °F - -0.4 °F 92% 30.12 in 10.0 mi Calm Calm - N/A   Clear
8:30 PM 1.4 °F -6.2 °F -4.0 °F 78% 30.12 in 10.0 mi SSW 3.5 mph - N/A   Clear
8:50 PM 1.4 °F - -0.4 °F 92% 30.11 in 10.0 mi Calm Calm - N/A   Clear
9:10 PM -0.4 °F - -4.0 °F 85% 30.11 in 10.0 mi Calm Calm - N/A   Clear
9:30 PM -0.4 °F - -4.0 °F 85% 30.11 in 10.0 mi Calm Calm - N/A   Clear
9:50 PM -0.4 °F - -5.8 °F 78% 30.11 in 10.0 mi Calm Calm - N/A   Clear
10:10 PM -0.4 °F -12.0 °F -4.0 °F 85% 30.10 in 10.0 mi West 5.8 mph - N/A   Clear
10:30 PM 1.4 °F - -4.0 °F 78% 30.10 in 10.0 mi Calm Calm - N/A   Clear
10:50 PM -0.4 °F - -5.8 °F 78% 30.09 in 10.0 mi Calm Calm - N/A   Clear
11:10 PM -0.4 °F -8.3 °F -4.0 °F 85% 30.08 in 10.0 mi WSW 3.5 mph - N/A   Clear
11:30 PM -0.4 °F -10.4 °F -5.8 °F 78% 30.08 in 10.0 mi SSW 4.6 mph - N/A   Clear
11:50 PM -2.2 °F -14.2 °F -5.8 °F 85% 30.08 in 10.0 mi South 5.8 mph - N/A   Clear